| time (UTC) | temp F | wind direction | speed MPH | gust MPH | rain 1hr in | rain 24hr in | rain mn in | humidity % | barometer mb |
| 20260509114525 | 75 | 245 | 2.0 | 6.0 | 0.00 | 0.00 | 0.00 | 30 | 1023.1 |
| 20260509113524 | 77 | 273 | 1.0 | 2.0 | 0.00 | 0.00 | 0.00 | 30 | 1023.1 |
| 20260509112517 | 76 | 264 | 1.0 | 3.0 | 0.00 | 0.00 | 0.00 | 31 | 1023.1 |
| 20260509111524 | 76 | 248 | 0.0 | 1.0 | 0.00 | 0.00 | 0.00 | 33 | 1023.1 |
| 20260509110544 | 73 | 0.0 | 0.0 | 0.00 | 0.00 | 0.00 | 36 | 1023.1 | |
| 20260509105524 | 69 | 0.0 | 0.0 | 0.00 | 0.00 | 0.00 | 37 | 1023.5 | |
| 20260509104524 | 68 | 0.0 | 0.0 | 0.00 | 0.00 | 0.00 | 39 | 1024.1 | |
| 20260509103543 | 70 | 0.0 | 0.0 | 0.00 | 0.00 | 0.00 | 38 | 1024.1 | |
| 20260509102524 | 71 | 230 | 1.0 | 4.0 | 0.00 | 0.00 | 0.00 | 39 | 1024.1 |
| 20260509101523 | 69 | 293 | 3.0 | 6.0 | 0.00 | 0.00 | 0.00 | 40 | 1024.1 |
| 20260509100523 | 68 | 293 | 1.0 | 3.0 | 0.00 | 0.00 | 0.00 | 42 | 1024.1 |
| 20260509095523 | 66 | 0.0 | 0.0 | 0.00 | 0.00 | 0.00 | 43 | 1024.1 | |
| 20260509094544 | 65 | 271 | 3.0 | 4.0 | 0.00 | 0.00 | 0.00 | 46 | 1024.1 |
| 20260509093524 | 62 | 0.0 | 0.0 | 0.00 | 0.00 | 0.00 | 47 | 1024.1 | |
| 20260509092523 | 61 | 0.0 | 0.0 | 0.00 | 0.00 | 0.00 | 47 | 1024.1 | |
| 20260509091524 | 60 | 0.0 | 0.0 | 0.00 | 0.00 | 0.00 | 49 | 1024.1 | |
| 20260509090524 | 60 | 0.0 | 0.0 | 0.00 | 0.00 | 0.00 | 48 | 1024.1 | |
| 20260509085529 | 59 | 0.0 | 0.0 | 0.00 | 0.00 | 0.00 | 50 | 1024.5 | |
| 20260509084544 | 60 | 23 | 0.0 | 1.0 | 0.00 | 0.00 | 0.00 | 53 | 1025.1 |
| 20260509083524 | 61 | 0.0 | 0.0 | 0.00 | 0.00 | 0.00 | 55 | 1025.1 | |
| 20260509082527 | 60 | 0.0 | 0.0 | 0.00 | 0.00 | 0.00 | 59 | 1025.1 | |
| 20260509081523 | 58 | 293 | 1.0 | 3.0 | 0.00 | 0.00 | 0.00 | 60 | 1025.1 |
| 20260509080524 | 57 | 0.0 | 0.0 | 0.00 | 0.00 | 0.00 | 61 | 1025.1 | |
| 20260509075604 | 56 | 0.0 | 0.0 | 0.00 | 0.00 | 0.00 | 62 | 1025.1 | |
| 20260509074521 | 55 | 287 | 2.0 | 6.0 | 0.00 | 0.00 | 0.00 | 63 | 1025.1 |
| 20260509073524 | 55 | 0.0 | 0.0 | 0.00 | 0.00 | 0.00 | 64 | 1025.1 | |
| 20260509072524 | 54 | 293 | 0.0 | 1.0 | 0.00 | 0.00 | 0.00 | 65 | 1025.1 |
| 20260509071544 | 53 | 0.0 | 0.0 | 0.00 | 0.00 | 0.00 | 65 | 1025.1 | |
| 20260509070523 | 52 | 0.0 | 0.0 | 0.00 | 0.00 | 0.00 | 66 | 1025.1 | |
| 20260509065523 | 50 | 0.0 | 0.0 | 0.00 | 0.00 | 0.00 | 66 | 1025.1 | |
| 20260509064517 | 49 | 248 | 0.0 | 2.0 | 0.00 | 0.00 | 0.00 | 66 | 1025.1 |
| 20260509063524 | 48 | 0.0 | 0.0 | 0.00 | 0.00 | 0.00 | 64 | 1025.1 | |
| 20260509062523 | 47 | 0.0 | 0.0 | 0.00 | 0.00 | 0.00 | 65 | 1025.1 | |
| 20260509061516 | 46 | 0.0 | 0.0 | 0.00 | 0.00 | 0.00 | 65 | 1025.1 | |
| 20260509060523 | 45 | 0.0 | 0.0 | 0.00 | 0.00 | 0.00 | 65 | 1025.1 | |
| 20260509055604 | 44 | 0.0 | 0.0 | 0.00 | 0.00 | 0.00 | 65 | 1025.1 | |
| 20260509054520 | 43 | 0.0 | 0.0 | 0.00 | 0.00 | 0.00 | 66 | 1025.1 | |
| 20260509053524 | 42 | 0.0 | 0.0 | 0.00 | 0.00 | 0.00 | 66 | 1025.1 | |
| 20260509052516 | 41 | 0.0 | 0.0 | 0.00 | 0.00 | 0.00 | 67 | 1025.1 | |
| 20260509051524 | 40 | 0.0 | 0.0 | 0.00 | 0.00 | 0.00 | 68 | 1025.1 | |
| 20260509050525 | 39 | 0.0 | 0.0 | 0.00 | 0.00 | 0.00 | 68 | 1025.1 | |
| 20260509045524 | 38 | 0.0 | 0.0 | 0.00 | 0.00 | 0.00 | 68 | 1025.1 | |
| 20260509044524 | 38 | 0.0 | 0.0 | 0.00 | 0.00 | 0.00 | 68 | 1025.1 | |
| 20260509043524 | 38 | 0.0 | 0.0 | 0.00 | 0.00 | 0.00 | 68 | 1025.1 | |
| 20260509042518 | 37 | 0.0 | 0.0 | 0.00 | 0.00 | 0.00 | 68 | 1025.1 | |
| 20260509041544 | 37 | 0.0 | 0.0 | 0.00 | 0.00 | 0.00 | 67 | 1025.1 | |
| 20260509040523 | 37 | 0.0 | 0.0 | 0.00 | 0.00 | 0.00 | 67 | 1025.1 | |
| 20260509035544 | 37 | 0.0 | 0.0 | 0.00 | 0.00 | 0.00 | 67 | 1025.1 | |
| 20260509034546 | 37 | 0.0 | 0.0 | 0.00 | 0.00 | 0.00 | 66 | 1025.1 | |
| 20260509033523 | 37 | 0.0 | 0.0 | 0.00 | 0.00 | 0.00 | 66 | 1025.1 | |
| 20260509032527 | 37 | 0.0 | 0.0 | 0.00 | 0.00 | 0.00 | 66 | 1025.1 | |
| 20260509031523 | 37 | 0.0 | 0.0 | 0.00 | 0.00 | 0.00 | 65 | 1025.1 | |
| 20260509030520 | 37 | 0.0 | 0.0 | 0.00 | 0.00 | 0.00 | 64 | 1025.1 | |
| 20260509025525 | 38 | 0.0 | 0.0 | 0.00 | 0.00 | 0.00 | 64 | 1025.1 | |
| 20260509024524 | 38 | 0.0 | 0.0 | 0.00 | 0.00 | 0.00 | 63 | 1025.1 | |
| 20260509023524 | 38 | 0.0 | 0.0 | 0.00 | 0.00 | 0.00 | 63 | 1025.1 | |
| 20260509022524 | 38 | 0.0 | 0.0 | 0.00 | 0.00 | 0.00 | 62 | 1025.5 | |
| 20260509021520 | 39 | 0.0 | 0.0 | 0.00 | 0.00 | 0.00 | 63 | 1026.1 | |
| 20260509020516 | 39 | 0.0 | 0.0 | 0.00 | 0.00 | 0.00 | 63 | 1025.1 | |
| 20260509015523 | 39 | 0.0 | 0.0 | 0.00 | 0.00 | 0.00 | 63 | 1025.1 | |
| 20260509014524 | 39 | 0.0 | 0.0 | 0.00 | 0.00 | 0.00 | 63 | 1025.1 | |
| 20260509013523 | 40 | 0.0 | 0.0 | 0.00 | 0.00 | 0.00 | 62 | 1025.1 | |
| 20260509012524 | 40 | 0.0 | 0.0 | 0.00 | 0.00 | 0.00 | 62 | 1025.1 | |
| 20260509011524 | 40 | 0.0 | 0.0 | 0.00 | 0.00 | 0.00 | 62 | 1025.1 | |
| 20260509010521 | 40 | 0.0 | 0.0 | 0.00 | 0.00 | 0.00 | 61 | 1025.1 | |
| 20260509005545 | 41 | 0.0 | 0.0 | 0.00 | 0.00 | 0.00 | 59 | 1025.1 | |
| 20260509004523 | 41 | 0.0 | 0.0 | 0.00 | 0.00 | 0.00 | 60 | 1025.1 | |
| 20260509003523 | 42 | 0.0 | 0.0 | 0.00 | 0.00 | 0.00 | 58 | 1025.1 | |
| 20260509002544 | 42 | 0.0 | 0.0 | 0.00 | 0.00 | 0.00 | 58 | 1025.1 | |
| 20260509001523 | 42 | 0.0 | 0.0 | 0.00 | 0.00 | 0.00 | 59 | 1025.1 | |
| 20260509000523 | 43 | 0.0 | 0.0 | 0.00 | 0.00 | 0.00 | 59 | 1025.1 | |
| 20260508235521 | 43 | 68 | 0.0 | 1.0 | 0.00 | 0.00 | 0.00 | 59 | 1025.1 |
| 20260508234524 | 44 | 0.0 | 0.0 | 0.00 | 0.00 | 0.00 | 58 | 1025.1 | |
| 20260508233524 | 44 | 0.0 | 0.0 | 0.00 | 0.00 | 0.00 | 58 | 1025.1 | |
| 20260508232523 | 44 | 0.0 | 0.0 | 0.00 | 0.00 | 0.00 | 57 | 1025.1 | |
| 20260508231523 | 44 | 0.0 | 0.0 | 0.00 | 0.00 | 0.00 | 56 | 1025.1 | |
| 20260508230525 | 44 | 0.0 | 0.0 | 0.00 | 0.00 | 0.00 | 54 | 1025.1 | |
| 20260508225523 | 46 | 0.0 | 0.0 | 0.00 | 0.00 | 0.00 | 53 | 1025.1 | |
| 20260508224541 | 47 | 0.0 | 0.0 | 0.00 | 0.00 | 0.00 | 53 | 1025.1 | |
| 20260508223545 | 47 | 0.0 | 0.0 | 0.00 | 0.00 | 0.00 | 53 | 1025.1 | |
| 20260508222524 | 47 | 0.0 | 0.0 | 0.00 | 0.00 | 0.00 | 54 | 1025.1 | |
| 20260508221524 | 47 | 0.0 | 0.0 | 0.00 | 0.00 | 0.00 | 54 | 1025.1 | |
| 20260508220524 | 47 | 0.0 | 0.0 | 0.00 | 0.00 | 0.00 | 53 | 1025.1 | |
| 20260508215523 | 48 | 0.0 | 0.0 | 0.00 | 0.00 | 0.00 | 52 | 1025.1 | |
| 20260508214524 | 48 | 0.0 | 0.0 | 0.00 | 0.00 | 0.00 | 52 | 1025.1 | |
| 20260508213541 | 49 | 0.0 | 0.0 | 0.00 | 0.00 | 0.00 | 52 | 1025.1 | |
| 20260508212518 | 49 | 0.0 | 0.0 | 0.00 | 0.00 | 0.00 | 52 | 1025.1 | |
| 20260508211524 | 49 | 0.0 | 0.0 | 0.00 | 0.00 | 0.00 | 52 | 1025.1 | |
| 20260508210604 | 50 | 0.0 | 0.0 | 0.00 | 0.00 | 0.00 | 51 | 1025.1 | |
| 20260508205523 | 50 | 0.0 | 0.0 | 0.00 | 0.00 | 0.00 | 51 | 1025.1 | |
| 20260508204524 | 50 | 0.0 | 0.0 | 0.00 | 0.00 | 0.00 | 50 | 1025.1 | |
| 20260508203543 | 50 | 0.0 | 0.0 | 0.00 | 0.00 | 0.00 | 48 | 1024.1 | |
| 20260508202544 | 51 | 0.0 | 0.0 | 0.00 | 0.00 | 0.00 | 47 | 1024.1 | |
| 20260508201523 | 51 | 0.0 | 0.0 | 0.00 | 0.00 | 0.00 | 47 | 1024.1 | |
| 20260508200524 | 52 | 0.0 | 0.0 | 0.00 | 0.00 | 0.00 | 46 | 1024.1 | |
| 20260508195524 | 52 | 0.0 | 0.0 | 0.00 | 0.00 | 0.00 | 46 | 1024.1 | |
| 20260508194524 | 52 | 0.0 | 0.0 | 0.00 | 0.00 | 0.00 | 45 | 1024.1 | |
| 20260508193545 | 53 | 0.0 | 0.0 | 0.00 | 0.00 | 0.00 | 43 | 1024.1 | |
| 20260508192548 | 53 | 0.0 | 0.0 | 0.00 | 0.00 | 0.00 | 43 | 1024.1 | |
| 20260508191524 | 54 | 0.0 | 0.0 | 0.00 | 0.00 | 0.00 | 40 | 1024.1 | |
| 20260508190544 | 54 | 0.0 | 0.0 | 0.00 | 0.00 | 0.00 | 39 | 1024.1 | |
| 20260508185523 | 55 | 0.0 | 0.0 | 0.00 | 0.00 | 0.00 | 36 | 1024.1 | |
| 20260508184521 | 57 | 0.0 | 0.0 | 0.00 | 0.00 | 0.00 | 34 | 1024.1 | |
| 20260508183524 | 58 | 0.0 | 0.0 | 0.00 | 0.00 | 0.00 | 33 | 1024.1 | |
| 20260508182524 | 58 | 0.0 | 0.0 | 0.00 | 0.00 | 0.00 | 32 | 1023.8 | |
| 20260508181519 | 59 | 248 | 1.0 | 4.0 | 0.00 | 0.00 | 0.00 | 32 | 1023.1 |
| 20260508180527 | 60 | 253 | 1.0 | 3.0 | 0.00 | 0.00 | 0.00 | 31 | 1023.1 |
| 20260508175544 | 61 | 293 | 1.0 | 4.0 | 0.00 | 0.00 | 0.00 | 31 | 1023.1 |
| 20260508174522 | 62 | 259 | 3.0 | 5.0 | 0.00 | 0.00 | 0.00 | 30 | 1023.1 |
| 20260508173524 | 62 | 257 | 5.0 | 6.0 | 0.00 | 0.00 | 0.00 | 30 | 1023.1 |
| 20260508172524 | 64 | 280 | 5.0 | 7.0 | 0.00 | 0.00 | 0.00 | 29 | 1023.1 |
| 20260508171517 | 64 | 255 | 7.0 | 7.0 | 0.00 | 0.00 | 0.00 | 29 | 1023.1 |
| 20260508170523 | 65 | 284 | 8.0 | 9.0 | 0.00 | 0.00 | 0.00 | 28 | 1023.1 |
| 20260508165524 | 67 | 269 | 8.0 | 9.0 | 0.00 | 0.00 | 0.00 | 28 | 1023.1 |
| 20260508164536 | 67 | 284 | 5.0 | 6.0 | 0.00 | 0.00 | 0.00 | 28 | 1023.1 |
| 20260508163523 | 67 | 256 | 7.0 | 9.0 | 0.00 | 0.00 | 0.00 | 27 | 1023.1 |
| 20260508162524 | 69 | 265 | 8.0 | 10.0 | 0.00 | 0.00 | 0.00 | 27 | 1023.1 |
| 20260508161523 | 70 | 261 | 9.0 | 11.0 | 0.00 | 0.00 | 0.00 | 27 | 1023.1 |
| 20260508160524 | 73 | 273 | 8.0 | 12.0 | 0.00 | 0.00 | 0.00 | 26 | 1023.1 |
| 20260508155523 | 74 | 273 | 8.0 | 10.0 | 0.00 | 0.00 | 0.00 | 26 | 1023.1 |
| 20260508154521 | 74 | 278 | 7.0 | 8.0 | 0.00 | 0.00 | 0.00 | 25 | 1023.1 |
| 20260508153519 | 76 | 290 | 6.0 | 8.0 | 0.00 | 0.00 | 0.00 | 26 | 1023.1 |
| 20260508152517 | 75 | 268 | 7.0 | 10.0 | 0.00 | 0.00 | 0.00 | 25 | 1023.1 |
| 20260508151544 | 75 | 286 | 7.0 | 10.0 | 0.00 | 0.00 | 0.00 | 26 | 1023.1 |
| 20260508150524 | 77 | 283 | 8.0 | 11.0 | 0.00 | 0.00 | 0.00 | 25 | 1023.1 |
| 20260508145523 | 76 | 272 | 8.0 | 11.0 | 0.00 | 0.00 | 0.00 | 26 | 1023.1 |
| 20260508144526 | 75 | 274 | 8.0 | 10.0 | 0.00 | 0.00 | 0.00 | 27 | 1023.1 |
| 20260508143524 | 73 | 285 | 10.0 | 13.0 | 0.00 | 0.00 | 0.00 | 27 | 1023.1 |
| 20260508142544 | 76 | 271 | 8.0 | 10.0 | 0.00 | 0.00 | 0.00 | 27 | 1023.1 |
| 20260508141525 | 77 | 282 | 9.0 | 11.0 | 0.00 | 0.00 | 0.00 | 27 | 1023.1 |
| 20260508140524 | 73 | 281 | 8.0 | 11.0 | 0.00 | 0.00 | 0.00 | 28 | 1023.1 |
| 20260508135524 | 71 | 266 | 7.0 | 10.0 | 0.00 | 0.00 | 0.00 | 28 | 1023.1 |
| 20260508134543 | 74 | 260 | 8.0 | 10.0 | 0.00 | 0.00 | 0.00 | 27 | 1023.1 |
| 20260508133523 | 75 | 264 | 9.0 | 13.0 | 0.00 | 0.00 | 0.00 | 27 | 1023.1 |
| 20260508132523 | 69 | 265 | 9.0 | 11.0 | 0.00 | 0.00 | 0.00 | 28 | 1023.1 |
| 20260508131521 | 70 | 258 | 11.0 | 13.0 | 0.00 | 0.00 | 0.00 | 28 | 1023.1 |
| 20260508130517 | 70 | 258 | 12.0 | 14.0 | 0.00 | 0.00 | 0.00 | 27 | 1023.1 |
| 20260508125523 | 71 | 253 | 12.0 | 17.0 | 0.00 | 0.00 | 0.00 | 26 | 1023.1 |
| 20260508124523 | 75 | 266 | 12.0 | 16.0 | 0.00 | 0.00 | 0.00 | 25 | 1023.1 |
| 20260508123515 | 75 | 248 | 12.0 | 14.0 | 0.00 | 0.00 | 0.00 | 24 | 1023.1 |
| 20260508122524 | 72 | 244 | 5.0 | 6.0 | 0.00 | 0.00 | 0.00 | 24 | 1023.1 |
| 20260508121520 | 72 | 0.0 | 0.0 | 0.00 | 0.00 | 0.00 | 24 | 1023.1 | |
| 20260508120523 | 73 | 58 | 1.0 | 2.0 | 0.00 | 0.00 | 0.00 | 24 | 1023.1 |
| 20260508115604 | 74 | 293 | 1.0 | 2.0 | 0.00 | 0.00 | 0.00 | 24 | 1023.1 |